When you browse on this site, cookies collect data to enhance your experience and personalize the content and advertising you see.
Visit our Privacy Policy to learn more. By continuing to use the site, you agree to this use of cookies and data.
  • In United Kingdom
  • List of Countries
  • For 7 days
  • Water Temperature
  • Satellite Maps
  • Weather Map
  • Weather Widgets
  • user-avatar
    Login

    Hourly Weather Brussels

    Today, 21 May, Tuesday

    Time Temperature Precipitation Wind Pressure Humidity
    00:00 +9°C° 0 mm 3 mps 756 mmHg 93%
    01:00 +9°C° 0 mm 3 mps 756 mmHg 93%
    02:00 +8°C° 0 mm 4 mps 756 mmHg 93%
    03:00 +8°C° 0 mm 4 mps 756 mmHg 93%
    04:00 +10°C° 0 mm 4 mps 756 mmHg 91%
    05:00 +11°C° 0 mm 4 mps 756 mmHg 88%
    06:00 +11°C° 0 mm 4 mps 757 mmHg 85%
    07:00 +12°C° 0 mm 5 mps 757 mmHg 80%
    08:00 +14°C° 0 mm 5 mps 757 mmHg 75%
    09:00 +15°C° 0 mm 6 mps 758 mmHg 70%
    10:00 +16°C° 0 mm 6 mps 758 mmHg 67%
    11:00 +17°C° 0 mm 6 mps 758 mmHg 63%
    12:00 +19°C° 0 mm 6 mps 758 mmHg 60%
    13:00 +17°C° 0 mm 6 mps 758 mmHg 60%
    14:00 +17°C° 0 mm 6 mps 758 mmHg 61%
    15:00 +17°C° 0 mm 6 mps 758 mmHg 61%
    16:00 +16°C° 0 mm 5 mps 758 mmHg 65%
    17:00 +15°C° 0 mm 5 mps 758 mmHg 68%
    18:00 +14°C° 0 mm 4 mps 758 mmHg 72%
    19:00 +13°C° 0 mm 3 mps 759 mmHg 77%
    20:00 +11°C° 0 mm 3 mps 759 mmHg 83%
    21:00 +10°C° 0 mm 2 mps 760 mmHg 88%
    22:00 +9°C° 0 mm 2 mps 760 mmHg 90%
    23:00 +9°C° 0 mm 2 mps 760 mmHg 91%

    Tomorrow, 22 May, Wednesday

    Time Temperature Precipitation Wind Pressure Humidity
    00:00 +8°C° 0 mm 2 mps 760 mmHg 93%
    01:00 +8°C° 0 mm 2 mps 761 mmHg 93%
    02:00 +8°C° 0 mm 2 mps 761 mmHg 92%
    03:00 +8°C° 0 mm 2 mps 761 mmHg 92%
    04:00 +9°C° 0 mm 2 mps 761 mmHg 89%
    05:00 +11°C° 0 mm 1 mps 761 mmHg 85%
    06:00 +12°C° 0 mm 1 mps 761 mmHg 81%
    07:00 +14°C° 0 mm 1 mps 761 mmHg 75%
    08:00 +15°C° 0 mm 1 mps 761 mmHg 69%
    09:00 +18°C° 0 mm 1 mps 761 mmHg 63%
    10:00 +18°C° 0.1 mm 2 mps 761 mmHg 62%
    11:00 +18°C° 0.1 mm 2 mps 761 mmHg 61%
    12:00 +19°C° 0.1 mm 3 mps 761 mmHg 59%
    13:00 +19°C° 0 mm 3 mps 761 mmHg 56%
    14:00 +19°C° 0 mm 3 mps 761 mmHg 53%
    15:00 +20°C° 0 mm 4 mps 761 mmHg 50%
    16:00 +19°C° 0 mm 3 mps 761 mmHg 54%
    17:00 +17°C° 0 mm 3 mps 761 mmHg 57%
    18:00 +16°C° 0 mm 3 mps 761 mmHg 61%
    19:00 +15°C° 0 mm 2 mps 761 mmHg 64%
    20:00 +13°C° 0 mm 1 mps 761 mmHg 66%
    21:00 +12°C° 0 mm 1 mps 762 mmHg 69%
    22:00 +11°C° 0 mm 1 mps 762 mmHg 71%
    23:00 +10°C° 0 mm 1 mps 762 mmHg 72%

    Day after tomorrow, 23 May, Thursday

    Time Temperature Precipitation Wind Pressure Humidity
    00:00 +10°C° 0 mm 1 mps 762 mmHg 74%
    01:00 +9°C° 0 mm 1 mps 761 mmHg 75%
    02:00 +9°C° 0 mm 1 mps 761 mmHg 76%
    03:00 +9°C° 0 mm 1 mps 761 mmHg 76%
    04:00 +10°C° 0 mm 1 mps 761 mmHg 74%
    05:00 +10°C° 0 mm 2 mps 761 mmHg 72%
    06:00 +12°C° 0 mm 2 mps 761 mmHg 70%
    07:00 +14°C° 0 mm 2 mps 761 mmHg 66%
    08:00 +16°C° 0 mm 2 mps 761 mmHg 62%
    09:00 +18°C° 0 mm 2 mps 761 mmHg 58%
    10:00 +19°C° 0 mm 2 mps 761 mmHg 55%
    11:00 +20°C° 0 mm 2 mps 761 mmHg 52%
    12:00 +21°C° 0 mm 3 mps 761 mmHg 49%
    13:00 +21°C° 0 mm 3 mps 760 mmHg 49%
    14:00 +21°C° 0 mm 3 mps 760 mmHg 50%
    15:00 +21°C° 0 mm 3 mps 760 mmHg 51%
    16:00 +20°C° 0 mm 2 mps 760 mmHg 56%
    17:00 +20°C° 0 mm 2 mps 760 mmHg 61%
    18:00 +19°C° 0 mm 2 mps 760 mmHg 67%
    19:00 +18°C° 0 mm 1 mps 760 mmHg 70%
    20:00 +15°C° 0 mm 1 mps 760 mmHg 72%
    21:00 +14°C° 0 mm 1 mps 760 mmHg 75%
    22:00 +13°C° 0 mm 1 mps 760 mmHg 76%
    23:00 +11°C° 0 mm 0 mps 760 mmHg 78%

    24 May, Friday

    Time Temperature Precipitation Wind Pressure Humidity
    00:00 +11°C° 0 mm 0 mps 760 mmHg 79%
    01:00 +10°C° 0 mm 0 mps 760 mmHg 79%
    02:00 +10°C° 0 mm 0 mps 759 mmHg 79%
    03:00 +11°C° 0 mm 1 mps 759 mmHg 79%
    04:00 +12°C° 0 mm 1 mps 759 mmHg 77%
    05:00 +13°C° 0 mm 1 mps 759 mmHg 75%
    06:00 +14°C° 0 mm 1 mps 759 mmHg 72%
    07:00 +16°C° 0 mm 2 mps 759 mmHg 68%
    08:00 +17°C° 0 mm 2 mps 759 mmHg 65%
    09:00 +19°C° 0 mm 3 mps 760 mmHg 61%
    10:00 +20°C° 0 mm 3 mps 759 mmHg 59%
    11:00 +20°C° 0 mm 4 mps 759 mmHg 57%
    12:00 +21°C° 0 mm 4 mps 759 mmHg 54%
    13:00 +21°C° 0 mm 4 mps 759 mmHg 54%
    14:00 +21°C° 0 mm 5 mps 759 mmHg 54%
    15:00 +20°C° 0 mm 5 mps 759 mmHg 53%
    16:00 +19°C° 0 mm 4 mps 759 mmHg 58%
    17:00 +18°C° 0 mm 4 mps 759 mmHg 63%
    18:00 +17°C° 0 mm 3 mps 759 mmHg 68%
    19:00 +16°C° 0 mm 3 mps 759 mmHg 74%
    20:00 +14°C° 0 mm 2 mps 760 mmHg 80%
    21:00 +12°C° 0 mm 2 mps 760 mmHg 85%
    22:00 +12°C° 0 mm 2 mps 760 mmHg 86%
    23:00 +11°C° 0 mm 1 mps 760 mmHg 87%

    25 May, Saturday

    Time Temperature Precipitation Wind Pressure Humidity
    00:00 +10°C° 0 mm 1 mps 760 mmHg 87%
    01:00 +10°C° 0 mm 1 mps 760 mmHg 87%
    02:00 +10°C° 0 mm 1 mps 761 mmHg 87%
    03:00 +9°C° 0 mm 1 mps 761 mmHg 87%
    04:00 +10°C° 0 mm 1 mps 761 mmHg 84%
    05:00 +10°C° 0 mm 2 mps 761 mmHg 80%
    06:00 +12°C° 0 mm 2 mps 761 mmHg 76%
    07:00 +13°C° 0 mm 3 mps 761 mmHg 71%
    08:00 +14°C° 0 mm 3 mps 761 mmHg 65%
    09:00 +17°C° 0 mm 3 mps 762 mmHg 60%
    10:00 +17°C° 0 mm 4 mps 762 mmHg 60%
    11:00 +18°C° 0 mm 4 mps 761 mmHg 59%
    12:00 +18°C° 0 mm 4 mps 761 mmHg 59%
    13:00 +18°C° 0 mm 4 mps 761 mmHg 59%
    14:00 +18°C° 0 mm 4 mps 761 mmHg 59%
    15:00 +19°C° 0 mm 4 mps 761 mmHg 60%
    16:00 +18°C° 0 mm 4 mps 761 mmHg 62%
    17:00 +17°C° 0 mm 4 mps 761 mmHg 65%
    18:00 +16°C° 0 mm 3 mps 761 mmHg 67%
    19:00 +15°C° 0 mm 2 mps 761 mmHg 71%
    20:00 +13°C° 0 mm 2 mps 761 mmHg 76%
    21:00 +11°C° 0 mm 1 mps 762 mmHg 80%
    22:00 +11°C° 0 mm 1 mps 762 mmHg 81%
    23:00 +11°C° 0 mm 1 mps 761 mmHg 81%

    26 May, Sunday

    Time Temperature Precipitation Wind Pressure Humidity
    00:00 +10°C° 0 mm 1 mps 761 mmHg 82%
    01:00 +10°C° 0 mm 2 mps 761 mmHg 81%
    02:00 +10°C° 0 mm 2 mps 761 mmHg 81%
    03:00 +11°C° 0 mm 3 mps 761 mmHg 81%
    04:00 +11°C° 0 mm 3 mps 761 mmHg 82%
    05:00 +12°C° 0 mm 4 mps 760 mmHg 83%
    06:00 +12°C° 0 mm 4 mps 760 mmHg 84%
    07:00 +13°C° 0 mm 4 mps 760 mmHg 81%
    08:00 +15°C° 0 mm 4 mps 760 mmHg 77%
    09:00 +17°C° 0 mm 4 mps 760 mmHg 74%
    10:00 +15°C° 0 mm 4 mps 760 mmHg 77%
    11:00 +15°C° 0 mm 4 mps 760 mmHg 80%
    12:00 +15°C° 0 mm 4 mps 760 mmHg 83%
    13:00 +17°C° 0 mm 4 mps 759 mmHg 82%
    14:00 +17°C° 0 mm 4 mps 759 mmHg 81%
    15:00 +17°C° 0 mm 4 mps 759 mmHg 80%
    16:00 +17°C° 0 mm 3 mps 759 mmHg 80%
    17:00 +18°C° 0 mm 3 mps 759 mmHg 79%
    18:00 +18°C° 0 mm 3 mps 759 mmHg 78%
    19:00 +16°C° 0 mm 2 mps 759 mmHg 82%
    20:00 +14°C° 0 mm 2 mps 759 mmHg 86%
    21:00 +13°C° 0 mm 1 mps 760 mmHg 90%
    22:00 +13°C° 0 mm 1 mps 759 mmHg 91%
    23:00 +12°C° 0 mm 1 mps 759 mmHg 91%
    Show more